Location: Newark
(7.0858°N, 171.3717°E)
Time: 07:54:00
(UTC+00:00)

Courier 1B - Pass Details

Date: 27 November 2020
Orbit: 962 x 1209 km, 28.3° (Epoch: 20 January)

Event Time Altitude Azimuth Distance (km) Brightness Sun altitude
Rises 17:28:03 0° 304° (NW) 4,050 - -15.2°
Reaches altitude 10° 17:30:53 10° 308° (NW) 3,109 - -14.5°
Exits shadow 17:32:17 16° 310° (NW) 2,663 9.2 -14.2°
Maximum altitude 17:38:36 64° 28° (NNE) 1,318 8.2 -12.7°
Drops below altitude 10° 17:46:22 10° 108° (ESE) 3,126 11.8 -10.9°
Sets 17:49:13 0° 111° (ESE) 4,074 13.1 -10.3°
